Location: Milton Keynes
(52.0316°N, 0.7531°W)
Time: 08:53:42
(UTC+00:00)

ISS - Pass Details

Date: 24 September 2022
Orbit: 414 x 421 km, 51.6° (Epoch: 02 December)

Event Time Altitude Azimuth Distance (km) Brightness Sun altitude
Rises 21:38:47 0° 280° (W) 2,372 1.2 -24.4°
Reaches altitude 10° 21:40:54 10° 277° (W) 1,505 -0.1 -24.7°
Enters shadow 21:42:40 28° 267° (W) 826 -1.8 -24.9°
